Weather History for Pueblo, CO

Change the Weather History Date:

Wednesday, January 29, 2014

  Actual Average Record
Temperature  
Mean Temperature 25 °F 31 °F  
Max Temperature 51 °F 48 °F 73 °F (1976)
Min Temperature -1 °F 15 °F -10 °F (1949)
Degree Days  
Heating Degree Days 40 34  
Month to date heating degree days 985 1000  
Since 1 July heating degree days 3223 3363  
Cooling Degree Days 0 0  
Month to date cooling degree days 0 0  
Year to date cooling degree days 0 0  
Moisture  
Dew Point 13 °F    
Average Humidity 70    
Maximum Humidity 95    
Minimum Humidity 44    
Precipitation  
Precipitation 0.00 in 0.01 in 0.24 in (1956)
Month to date precipitation 0.30 0.33  
Year to date precipitation 0.30 0.33  
Snow  
Snow 0.00 in 0.20 in 4.40 in (1956)
Month to date snowfall 5.7 6.1  
Since 1 July snowfall 11.6 17.6  
Snow Depth 2.00 in    
Sea Level Pressure  
Sea Level Pressure 29.97 in    
Wind  
Wind Speed 3 mph (West)    
Max Wind Speed 26 mph    
Max Gust Speed 37 mph    
Visibility 10 miles    
Events      
T = Trace of Precipitation, MM = Missing Value Source: NWS Daily Summary

Daily Weather History Graph

Daily Weather History Graph

Search for Another Location

Airport:

Trip Planner

Search our weather history database for the weather conditions in past years. The results will help you decide how hot, cold, wet, or windy it might be!

Date:

Astronomy

Jan. 29, 2014 Rise Set
Actual Time 7:05 AM MST 5:17 PM MST
Civil Twilight 6:37 AM MST 5:45 PM MST
Nautical Twilight 6:05 AM MST 6:17 PM MST
Astronomical Twilight 5:34 AM MST 6:48 PM MST
Moon 5:44 AM MST (1/29) 4:19 PM MST (1/29)
Length of Visible Light 11h 07m
Length of Day
10h 11m
Waning Crescent, 2% of the Moon is Illuminated
Jan 29
Waning Crescent
Jan 30
New
Feb 6
First Quarter
Feb 14
Full
Feb 22
Last Quarter

Hourly Weather History & Observations

Time (MST) Temp. Windchill Dew Point Humidity Pressure Visibility Wind Dir Wind Speed Gust Speed Precip Events Conditions
12:53 AM 3.9 °F -8.2 °F -0.0 °F 84% 30.23 in 10.0 mi West 6.9 mph - N/A   Clear
1:53 AM 6.1 °F -4.3 °F 1.0 °F 80% 30.21 in 10.0 mi WSW 5.8 mph - N/A   Clear
2:53 AM 3.0 °F -6.4 °F -0.0 °F 87% 30.19 in 10.0 mi WNW 4.6 mph - N/A   Clear
3:53 AM 1.9 °F -9.2 °F -0.9 °F 88% 30.16 in 10.0 mi WNW 5.8 mph - N/A   Clear
4:53 AM 3.9 °F - -0.9 °F 80% 30.16 in 10.0 mi Calm Calm - N/A   Clear
5:53 AM 3.0 °F - -0.0 °F 87% 30.19 in 10.0 mi Calm Calm - N/A   Clear
6:53 AM 5.0 °F - -0.0 °F 80% 30.19 in 10.0 mi Calm Calm - N/A   Clear
7:53 AM 6.1 °F - 1.0 °F 80% 30.20 in 10.0 mi Calm Calm - N/A   Clear
8:53 AM 14.0 °F - 6.1 °F 71% 30.17 in 10.0 mi Calm Calm - N/A   Clear
9:53 AM 24.1 °F - 10.9 °F 57% 30.14 in 10.0 mi Calm Calm - N/A   Clear
10:53 AM 28.9 °F - 12.9 °F 51% 30.10 in 10.0 mi Calm Calm - N/A   Clear
11:53 AM 30.0 °F 25.2 °F 18.0 °F 61% 30.06 in 10.0 mi SSE 4.6 mph - N/A   Clear
12:53 PM 35.1 °F 32.2 °F 19.0 °F 52% 29.97 in 10.0 mi ENE 3.5 mph - N/A   Clear
1:53 PM 37.0 °F 33.3 °F 17.1 °F 44% 29.91 in 10.0 mi SE 4.6 mph - N/A   Clear
2:53 PM 37.0 °F - 21.9 °F 54% 29.89 in 10.0 mi Calm Calm - N/A   Clear
3:53 PM 37.0 °F - 25.0 °F 62% 29.87 in 10.0 mi Calm Calm - N/A   Clear
4:53 PM 35.1 °F 30.1 °F 24.1 °F 64% 29.84 in 10.0 mi ENE 5.8 mph - N/A   Clear
5:53 PM 33.1 °F - 21.9 °F 64% 29.81 in 10.0 mi North - - N/A   Clear
6:53 PM 28.9 °F 25.2 °F 23.0 °F 78% 29.80 in 10.0 mi Variable 3.5 mph - N/A   Clear
7:53 PM 28.0 °F 24.2 °F 19.9 °F 72% 29.78 in 10.0 mi North 3.5 mph - N/A   Clear
8:53 PM 28.0 °F 22.8 °F 23.0 °F 81% 29.71 in 10.0 mi West 4.6 mph - N/A   Clear
9:53 PM 30.0 °F - 23.0 °F 75% 29.62 in 10.0 mi Calm Calm - N/A   Clear
10:53 PM 33.1 °F 26.1 °F 24.1 °F 70% 29.60 in 10.0 mi West 8.1 mph - N/A   Clear
11:53 PM 37.9 °F 30.5 °F 25.0 °F 60% 29.53 in 10.0 mi WSW 11.5 mph 21.9 mph N/A   Clear